Location: Newark
(21.1200°N, 73.4000°E)
Time: 02:47:17
(UTC+00:00)

Transit 2A - All Passes

Search period start: 26 January 2020 00:00
Search period end: 05 February 2020 00:00
Orbit: 601 x 958 km, 66.7° (Epoch: 25 January)

Date Brightness Start Highest point End Pass type
(mag) Time Alt. Az. Time Alt. Az. Time Alt. Az.
26 Jan - 01:04:15 10° NW 01:09:17 49° WSW 01:14:49 10° S visible
26 Jan - 13:51:38 10° SSW 13:56:18 82° WNW 14:00:41 10° NNE visible
27 Jan - 00:30:00 10° NNW 00:35:11 81° WSW 00:40:57 10° SSE visible
27 Jan - 13:17:39 10° S 13:22:13 55° ESE 13:26:31 10° NNE visible
27 Jan - 23:55:57 10° NNW 00:01:05 63° ENE 00:06:46 10° SSE visible
28 Jan - 01:43:34 10° WSW 01:43:57 10° WSW 01:44:21 10° WSW daylight
28 Jan - 12:44:02 10° S 12:48:09 31° ESE 12:52:03 10° NE daylight
28 Jan - 14:28:49 10° W 14:31:10 14° WNW 14:33:29 10° NNW visible
28 Jan - 23:22:08 10° N 23:26:59 39° ENE 23:32:16 10° SE visible
29 Jan - 01:06:26 10° WNW 01:09:55 17° WSW 01:13:35 10° SSW visible
29 Jan - 12:10:57 10° SSE 12:14:06 18° ESE 12:17:08 10° ENE daylight
29 Jan - 13:53:20 10° WSW 13:56:59 23° WNW 14:00:30 10° N visible
29 Jan - 22:48:36 10° N 22:52:50 25° ENE 22:57:23 10° ESE visible
30 Jan - 00:31:21 10° NW 00:35:50 28° WSW 00:40:43 10° SSW visible
30 Jan - 11:39:58 10° ESE 11:40:04 10° ESE 11:40:11 10° ESE daylight
30 Jan - 13:18:32 10° SW 13:22:51 40° WNW 13:26:58 10° N visible
30 Jan - 22:15:33 10° NNE 22:18:39 16° ENE 22:21:54 10° E visible
30 Jan - 23:56:45 10° NW 00:01:46 45° WSW 00:07:16 10° S visible
31 Jan - 12:44:08 10° SSW 12:48:44 73° WNW 12:53:06 10° NNE daylight
31 Jan - 23:22:26 10° NNW 23:27:41 73° WSW 23:33:29 10° SSE visible
01 Feb - 12:10:05 10° SSW 12:14:40 63° ESE 12:18:59 10° NNE daylight
01 Feb - 22:48:21 10° NNW 22:53:35 71° ENE 22:59:22 10° SSE visible
02 Feb - 11:36:24 10° S 11:40:36 35° ESE 11:44:35 10° NE daylight
02 Feb - 13:21:48 10° W 13:23:39 12° WNW 13:25:29 10° NW visible
02 Feb - 22:14:29 10° N 22:19:29 44° ENE 22:24:56 10° SE visible
02 Feb - 23:59:10 10° WNW 00:02:24 16° WSW 00:05:48 10° SW visible
03 Feb - 11:03:11 10° SSE 11:06:32 20° ESE 11:09:46 10° ENE daylight
03 Feb - 12:46:02 10° WSW 12:49:27 21° WNW 12:52:46 10° NNW daylight
03 Feb - 21:40:53 10° N 21:45:21 28° ENE 21:50:09 10° ESE night (unlit)
03 Feb - 23:23:56 10° NW 23:28:20 26° WSW 23:33:05 10° SSW visible
04 Feb - 10:31:06 10° SE 10:32:30 11° ESE 10:33:55 10° E daylight
04 Feb - 12:11:08 10° SW 12:15:18 35° WNW 12:19:18 10° N daylight
04 Feb - 21:07:41 10° NNE 21:11:10 18° ENE 21:14:51 10° ESE night (unlit)
04 Feb - 22:49:15 10° NW 22:54:15 41° WSW 22:59:44 10° S visible
